| time (UTC) | temp C | wind direction | speed KPH | gust KPH | rain 1hr cm | rain 24hr cm | rain mn cm | humidity % | barometer mb |
| 20260504033008 | 12 | 263 | 4.8 | 12.9 | 0.00 | 0.00 | 0.00 | 51 | 1012.6 |
| 20260504031509 | 12 | 233 | 1.6 | 12.9 | 0.00 | 0.00 | 0.00 | 52 | 1012.4 |
| 20260504030008 | 12 | 276 | 3.2 | 9.7 | 0.00 | 0.00 | 0.00 | 50 | 1012.4 |
| 20260504024507 | 12 | 262 | 1.6 | 9.7 | 0.00 | 0.00 | 0.00 | 47 | 1012.4 |
| 20260504023006 | 13 | 245 | 3.2 | 9.7 | 0.00 | 0.00 | 0.00 | 45 | 1012.5 |
| 20260504021505 | 13 | 243 | 6.4 | 14.5 | 0.00 | 0.00 | 0.00 | 43 | 1012.4 |
| 20260504020004 | 13 | 267 | 3.2 | 9.7 | 0.00 | 0.00 | 0.00 | 44 | 1012.4 |
| 20260504014502 | 13 | 225 | 3.2 | 8.0 | 0.00 | 0.00 | 0.00 | 41 | 1012.3 |
| 20260504013113 | 13 | 245 | 4.8 | 12.9 | 0.00 | 0.00 | 0.00 | 39 | 1012.2 |
| 20260504011600 | 13 | 215 | 3.2 | 11.3 | 0.00 | 0.00 | 0.00 | 37 | 1012.1 |
| 20260504010115 | 14 | 217 | 1.6 | 6.4 | 0.00 | 0.00 | 0.00 | 37 | 1011.8 |
| 20260504004559 | 14 | 209 | 3.2 | 8.0 | 0.00 | 0.00 | 0.00 | 37 | 1011.7 |
| 20260504003059 | 14 | 237 | 4.8 | 9.7 | 0.00 | 0.00 | 0.00 | 36 | 1011.4 |
| 20260504001603 | 15 | 256 | 4.8 | 11.3 | 0.00 | 0.00 | 0.00 | 34 | 1011.2 |
| 20260504000059 | 15 | 250 | 3.2 | 16.1 | 0.00 | 0.00 | 0.00 | 34 | 1011.0 |
| 20260503234556 | 15 | 240 | 3.2 | 14.5 | 0.00 | 0.00 | 0.00 | 34 | 1010.9 |
| 20260503233102 | 15 | 288 | 3.2 | 12.9 | 0.00 | 0.00 | 0.00 | 30 | 1010.7 |
| 20260503231655 | 15 | 259 | 3.2 | 16.1 | 0.00 | 0.00 | 0.00 | 29 | 1010.5 |
| 20260503230055 | 16 | 6 | 6.4 | 19.3 | 0.00 | 0.00 | 0.00 | 28 | 1010.5 |
| 20260503224553 | 16 | 296 | 8.0 | 20.9 | 0.00 | 0.00 | 0.00 | 28 | 1010.4 |
| 20260503223053 | 16 | 39 | 8.0 | 24.1 | 0.00 | 0.00 | 0.00 | 28 | 1010.4 |
| 20260503221559 | 16 | 275 | 6.4 | 25.7 | 0.00 | 0.00 | 0.00 | 27 | 1010.2 |
| 20260503214551 | 16 | 248 | 9.7 | 25.7 | 0.00 | 0.00 | 0.00 | 27 | 1010.4 |
| 20260503213049 | 15 | 39 | 9.7 | 24.1 | 0.00 | 0.00 | 0.00 | 28 | 1010.3 |
| 20260503211548 | 15 | 354 | 14.5 | 32.2 | 0.00 | 0.00 | 0.00 | 28 | 1010.2 |
| 20260503210053 | 15 | 328 | 8.0 | 24.1 | 0.00 | 0.00 | 0.00 | 28 | 1010.2 |
| 20260503204558 | 15 | 19 | 14.5 | 27.4 | 0.00 | 0.00 | 0.00 | 29 | 1010.2 |
| 20260503203043 | 15 | 271 | 11.3 | 25.7 | 0.00 | 0.00 | 0.00 | 30 | 1010.2 |
| 20260503201542 | 15 | 269 | 8.0 | 22.5 | 0.00 | 0.00 | 0.00 | 30 | 1010.3 |
| 20260503200046 | 15 | 277 | 14.5 | 30.6 | 0.00 | 0.00 | 0.00 | 30 | 1010.4 |
| 20260503194539 | 14 | 307 | 12.9 | 27.4 | 0.00 | 0.00 | 0.00 | 31 | 1010.5 |
| 20260503193039 | 15 | 333 | 9.7 | 27.4 | 0.00 | 0.00 | 0.00 | 31 | 1010.6 |
| 20260503191537 | 14 | 291 | 12.9 | 20.9 | 0.00 | 0.00 | 0.00 | 32 | 1010.8 |
| 20260503190046 | 14 | 2 | 12.9 | 27.4 | 0.00 | 0.00 | 0.00 | 32 | 1011.0 |
| 20260503184535 | 13 | 303 | 9.7 | 19.3 | 0.00 | 0.00 | 0.00 | 35 | 1011.2 |
| 20260503183031 | 13 | 323 | 8.0 | 24.1 | 0.00 | 0.00 | 0.00 | 35 | 1011.3 |
| 20260503181533 | 13 | 273 | 8.0 | 25.7 | 0.00 | 0.00 | 0.00 | 35 | 1011.4 |
| 20260503180031 | 13 | 331 | 6.4 | 30.6 | 0.00 | 0.00 | 0.00 | 37 | 1011.5 |
| 20260503174528 | 12 | 264 | 14.5 | 27.4 | 0.00 | 0.00 | 0.00 | 37 | 1011.4 |
| 20260503173031 | 12 | 285 | 8.0 | 20.9 | 0.00 | 0.00 | 0.00 | 37 | 1011.4 |
| 20260503171525 | 12 | 326 | 6.4 | 25.7 | 0.00 | 0.00 | 0.00 | 38 | 1011.5 |
| 20260503081549 | 8 | 339 | 8.0 | 14.5 | 0.00 | 0.00 | 0.00 | 51 | 1010.1 |
| 20260503071536 | 10 | 325 | 4.8 | 11.3 | 0.00 | 0.00 | 0.00 | 48 | 1009.9 |
| 20260503054528 | 11 | 360 | 3.2 | 12.9 | 0.00 | 0.00 | 0.00 | 46 | 1010.1 |
| 20260503053018 | 11 | 16 | 3.2 | 12.9 | 0.00 | 0.00 | 0.00 | 46 | 1010.2 |
| 20260503051509 | 11 | 25 | 4.8 | 14.5 | 0.00 | 0.00 | 0.00 | 45 | 1010.5 |
| 20260503050005 | 11 | 23 | 4.8 | 17.7 | 0.00 | 0.00 | 0.00 | 43 | 1010.6 |
| 20260503044503 | 11 | 8 | 3.2 | 14.5 | 0.00 | 0.00 | 0.00 | 40 | 1010.7 |
| 20260503043102 | 12 | 347 | 4.8 | 14.5 | 0.00 | 0.00 | 0.00 | 39 | 1010.7 |
| 20260503041558 | 12 | 11 | 3.2 | 11.3 | 0.00 | 0.00 | 0.00 | 37 | 1010.8 |
| 20260503040055 | 12 | 321 | 4.8 | 17.7 | 0.00 | 0.00 | 0.00 | 38 | 1010.8 |
| 20260503034554 | 12 | 310 | 8.0 | 20.9 | 0.00 | 0.00 | 0.00 | 36 | 1010.8 |